Torna al catalogo

STARLINK-2505

AttivoComunicazioniVLEO
NORAD 48411·PAYLOAD·🇺🇸 United States

Lanciato May 4, 2021 da Cape Canaveral Space Force Station

Loading…

Prossimi Passaggi (prossime 24 ore)

TLE

AggiornatoSource: CelesTrak SupGP

Epoca: Sep 15, 2026, 01:26 UTC

1 48411C 21038BL  26258.06020833  .00063617  00000+0  20459-2 0  2589
2 48411  53.1590 132.5690 0001082  82.2241 346.5570 15.31668571    13

Traccia STARLINK-2505 in tempo reale con AllMySat

Download on the App Store